599  
ASUS44 KSHV 242310  
RWRSHV  
 
WEATHER ROUNDUP FOR THE FOUR STATE AREA  
NATIONAL WEATHER SERVICE SHREVEPORT LA  
500 PM CST FRI NOV 24 2017  
 
NOTE: "FAIR" INDICATES FEW OR NO CLOUDS BELOW 12000 FEET  
WITH NO SIGNIFICANT WEATHER AND/OR S TO VISIBILITY
.  
 
!LAZ001-LAZ014-TXZ097-250000  
SHREVEPORT...MONROE...TEXARKANA RADIOS  
 
CITY SKY/WX TMP DP RH WIND PRES REMARKS
 
SHREVEPORT MOCLDY 64 40 41 S9 29.87F  
MONROE CLEAR 63 35 35 S5 29.91F  
NATCHITOCHES CLEAR 64 37 37 S3 29.91S  
TEXARKANA CLEAR 65 38 36 S5 29.85S  

 
 
!LAZ001-LAZ014-TXZ097-250000  
OTHER LOCATIONS...  
 
CITY SKY/WX TMP DP RH WIND PRES REMARKS
 
DOWNTOWN SHV CLEAR 66 40 38 S7 29.88S  
BOSSIER CITY CLEAR 65 38 37 S8 29.88S  
RUSTON CLEAR 62 33 33 SW3 29.93F  
LITTLE ROCK MOCLDY 61 35 37 S7 29.85R  
EL DORADO CLEAR 62 39 42 S7 29.88F  
JACKSON MOCLDY 60 36 40 CALM 29.93S  
NEW ORLEANS PTCLDY 62 30 29 NE5 29.97S  
HOUSTON PTCLDY 70 37 29 S7 29.91F  
LUFKIN CLEAR 64 41 42 S6 29.90S  
TYLER CLEAR 66 38 35 S12 29.85F  
DAL FT WORTH MOCLDY 74 37 26 S13 29.76F  

 
 
!TXZ136-TXZ165-250000  
TYLER...LUFKIN RADIOS  
 
CITY SKY/WX TMP DP RH WIND PRES REMARKS
 
TYLER CLEAR 66 38 35 S12 29.85F  
GILMER CLEAR 67 38 34 S5 29.85S  
LONGVIEW CLEAR 66 42 41 S7 29.86F  
LUFKIN CLEAR 64 41 42 S6 29.90S  

 
 
!TXZ136-TXZ165-250000  
OTHER LOCATIONS...  
 
CITY SKY/WX TMP DP RH WIND PRES REMARKS
 
NACOGDOCHES CLEAR 63 42 46 SE5 29.90S  
BEAUMONT CLEAR 61 42 49 S7 29.94F  
HOUSTON PTCLDY 70 37 29 S7 29.91F  
COLLEGE STN PTCLDY 71 39 31 S9 29.88S  
AUSTIN PTCLDY 71 37 28 S13 29.86S  
DAL FT WORTH MOCLDY 74 37 26 S13 29.76F  
TEXARKANA CLEAR 65 38 36 S5 29.85S  
SHREVEPORT MOCLDY 64 40 41 S9 29.87F  
FORT POLK CLEAR 62 38 40 S6 29.92S  
LAKE CHARLES CLEAR 60 42 51 S6 29.95F  

 
 
 
CLICK HERE TO GO TO PREVIOUS BULLETINS.

The Nexlab LA Page
The Nexlab TX Page
The Nexlab AR Page
The Nexlab OK Page Main Text Page